Volver al catálogo

STARLINK-31681

ActivoComunicacionesVLEO
NORAD 59746·PAYLOAD·🇺🇸 United States

Lanzado May 13, 2024 desde Cape Canaveral Space Force Station

Loading…

Próximos Pases (próximas 24 horas)

TLE

ActualizadoSource: CelesTrak SupGP

Época: Sep 15, 2026, 02:34 UTC

1 59746C 24090S   26258.10743056 -.00029649  00000+0 -10739-2 0  2586
2 59746  43.0024 186.8246 0001351 278.2601 288.3617 15.27592691    10

Sigue STARLINK-31681 en tiempo real con AllMySat

Download on the App Store